Lake Erie PROM 2018

Brownstown, MI
Timing/Results DL Pro Timing

Lake Erie PROM 2018 vs Lake Erie PROM 2016

Aggregate Data Points
Difference This Meet That Meet
Overall Athletes -23 349 372
Overall Average -43.58 23:01.00 23:44.57
1st-10th Place -8.53 17:45.99 17:54.52
1st-25th Place -13.13 18:09.75 18:22.88
1st-50th Place -15.08 18:43.04 18:58.12
1st-100th Place -16.19 19:25.64 19:41.83
Common Athletes -- -- 67
Ran Faster 37 52 15
Ran Season Best -- 6 6
Average Time -1:20.96 22:20.45 23:41.41
Median Time -1:27.70 21:59.20 23:26.90
Middle 80% Times -1:12.82 22:19.53 23:32.35
Top 10% Times -1:08.27 18:24.04 19:32.32
Top 25% Times -1:07.98 19:10.52 20:18.50
Top 50% Times -1:15.86 20:10.39 21:26.26
Bottom 50% Times -1:23.68 23:51.08 25:14.76
Bottom 25% Times -1:37.17 25:52.62 27:29.78
Bottom 10% Times -2:36.33 26:55.39 29:31.72
Average Difference -1:20.96 -- --
Median Difference -3:33.00 -- --
Middle 80% Difference -1:10.69 -- --
Top 10% Difference -55.25 -- --
Top 50% Difference -1:01.52 -- --
Top 25% Difference -56.94 -- --
Top 50% Difference -1:01.52 -- --
Bottom 50% Difference -1:44.29 -- --
Bottom 25% Difference -2:11.26 -- --
Bottom 10% Difference -3:24.49 -- --

Performances of Common Athletes
Athlete Team Difference This Meet That Meet
Jacob Brunty Saline -1:49.72 17:17.60 19:07.32
Seth Oxer Temperance-Bedford -1:13.60 18:05.80 19:19.40
Luke Hensley Ann Arbor Pioneer -2:52.20 18:06.00 20:58.20
Steven Kraine Temperance-Bedford -1:57.90 18:18.30 20:16.20
Seth Murphy Temperance-Bedford +46.60 19:14.70 18:28.10
Prahar Dave Brownstown Woodhaven -1:07.30 18:46.20 19:53.50
Jack Geisler Temperance-Bedford -56.20 19:03.70 19:59.90
Radolfo Plata Ann Arbor Pioneer -2:36.50 19:10.70 21:47.20
Ryan Gore Temperance-Bedford -1:58.50 19:15.20 21:13.70
Nick Huss Temperance-Bedford -8.60 19:33.20 19:41.80
Matthew Hretz Ann Arbor Gabriel Richard -3:41.50 19:37.80 23:19.30
Matt Lipscomb Ann Arbor Gabriel Richard -5:15.30 19:43.70 24:59.00
Daniel Gass Dearborn Divine Child -1:37.10 19:45.00 21:22.10
Fisher Rowe Temperance-Bedford -42.30 19:52.20 20:34.50
Caden Bodine Temperance-Bedford -1:29.10 19:55.20 21:24.30
Jp Dejak Ann Arbor Gabriel Richard -6:24.70 20:04.20 26:28.90
Collin Miracle Allen Park -1:20.10 20:09.30 21:29.40
David Pace Allen Park -3:33.00 20:09.80 23:42.80
Fenrik Goerlitz Ypsilanti Lincoln +2.30 20:21.40 20:19.10
Keegan Ehrman New Boston Huron +1:51.30 22:12.60 20:21.30
Lino Diamantis Brownstown Woodhaven + 20:21.80 20:21.80
Patrick Dotson Temperance-Bedford +13.40 20:37.20 20:23.80
Marco Muniz Allen Park -4:55.90 20:36.60 25:32.50
Justin Miner Allen Park -1:55.90 20:47.40 22:43.30
Jacob Gladieux Monroe -52.60 20:51.70 21:44.30
Ross Koscielny Allen Park -5:35.20 20:52.20 26:27.40
Brian Sullivan Temperance-Bedford -2:13.20 21:13.30 23:26.50
Kyle Murney New Boston Huron -1:34.50 21:25.00 22:59.50
Lydia Valtadoros Ann Arbor Pioneer +1:37.97 23:10.30 21:32.33
Lucas Jordan Temperance-Bedford +2.40 21:36.50 21:34.10
Tyler Melcher Riverview -2:38.10 21:36.30 24:14.40
Spencer Buckler Allen Park -1:43.20 21:48.30 23:31.50
Sierra Webber Ann Arbor Gabriel Richard +2:47.13 24:36.30 21:49.17
Drake Bostic Carleton Airport -2:43.90 21:50.40 24:34.30
Jonathan Throne Ypsilanti Lincoln -1:33.40 21:53.50 23:26.90
D J Burgoyne Ann Arbor Pioneer -3:23.30 21:54.00 25:17.30
Elena Welker Dearborn Divine Child -40.56 21:59.20 22:39.76
Adeline Meyers Dearborn Divine Child -29.76 22:07.70 22:37.46
Bendo Sompa Ann Arbor Pioneer +0.97 22:11.10 22:10.13
Eric Balenecki Ypsilanti Lincoln -50.30 22:24.10 23:14.40
Reece Thomas Temperance-Bedford +4:11.10 26:38.30 22:27.20
Bri Pauli Temperance-Bedford -21.47 22:28.30 22:49.77
Baylee Canning Temperance-Bedford -1:21.60 22:36.50 23:58.10
Sher Khehra Brownstown Woodhaven -2:44.10 22:39.20 25:23.30
Annah Thomas-dull Temperance-Bedford -2:11.73 22:47.30 24:59.03
Kristen Kukla Dearborn Divine Child -8.14 23:08.80 23:16.94
Madison Hall Dearborn Divine Child +2:29.05 26:01.00 23:31.95
Audrey Shambaugh Ann Arbor Pioneer -3:30.91 23:49.90 27:20.81
Elizabeth Chang Temperance-Bedford -19.13 23:58.40 24:17.53
Kolby Hood Wayne Memorial -32.60 24:13.60 24:46.20
James Dodd Ann Arbor Pioneer -19.70 24:15.10 24:34.80
Georgia Zender Ann Arbor Pioneer +59.21 25:21.40 24:22.19
Alexa Easter Ann Arbor Pioneer -21.17 24:22.90 24:44.07
Madelynn Shannon Dearborn Divine Child -37.09 24:38.00 25:15.09
Grace Benz Ann Arbor Gabriel Richard -2:17.80 24:39.00 26:56.80
Morgan Heavener Ann Arbor Gabriel Richard +20.93 25:04.30 24:43.37
Jocelyn Dean Brownstown Woodhaven -0.84 24:50.40 24:51.24
Madelyn Jankowski Ypsilanti Lincoln -4:10.87 24:51.00 29:01.87
Madison Zimmerman Temperance-Bedford +50.73 25:55.70 25:04.97
Piper Daleiden Ann Arbor Gabriel Richard -1:02.27 25:07.40 26:09.67
Austin Faust Ypsilanti Lincoln -6:59.00 25:18.80 32:17.80
Carmen Caldwell Brownstown Woodhaven -2:36.06 25:40.80 28:16.86
Emily Worden Dearborn Divine Child +10.87 26:04.70 25:53.83
Bryanna Kramarczyk Ypsilanti Lincoln -2:07.95 26:00.50 28:08.45
Brooke Butkin Wyandotte Roosevelt -1:55.70 26:05.70 28:01.40
Isabelle Lopez Dearborn Divine Child -45.91 26:33.60 27:19.51
Naomi Veidlinger Ann Arbor Pioneer -2:30.92 31:03.90 33:34.82